| time (UTC) | temp F | wind direction | speed MPH | gust MPH | rain 1hr in | rain 24hr in | rain mn in | humidity % | barometer mb |
| 20260904081213 | 69 | 232 | 0.0 | 0.0 | 0.00 | 0.00 | 0.00 | 99 | 1017.2 |
| 20260904080708 | 69 | 235 | 0.0 | 0.0 | 0.00 | 0.00 | 0.00 | 99 | 1017.0 |
| 20260904080204 | 69 | 234 | 0.0 | 0.0 | 0.00 | 0.00 | 0.00 | 99 | 1016.9 |
| 20260904075701 | 69 | 239 | 0.0 | 1.0 | 0.00 | 0.00 | 0.00 | 99 | 1017.0 |
| 20260904075155 | 69 | 239 | 0.0 | 0.0 | 0.00 | 0.00 | 0.00 | 99 | 1016.6 |
| 20260904074654 | 70 | 236 | 0.0 | 0.0 | 0.00 | 0.00 | 0.00 | 99 | 1016.5 |
| 20260904074149 | 70 | 235 | 0.0 | 0.0 | 0.00 | 0.00 | 0.00 | 99 | 1016.4 |
| 20260904073644 | 70 | 235 | 0.0 | 0.0 | 0.00 | 0.00 | 0.00 | 99 | 1016.7 |
| 20260904073140 | 70 | 241 | 0.0 | 0.0 | 0.00 | 0.00 | 0.00 | 99 | 1017.0 |
| 20260904072636 | 70 | 245 | 0.0 | 0.0 | 0.00 | 0.00 | 0.00 | 99 | 1016.9 |
| 20260904072131 | 70 | 248 | 0.0 | 0.0 | 0.00 | 0.00 | 0.00 | 99 | 1017.1 |
| 20260904071627 | 70 | 219 | 0.0 | 1.0 | 0.00 | 0.00 | 0.00 | 99 | 1016.7 |
| 20260904071126 | 70 | 280 | 0.0 | 1.0 | 0.00 | 0.00 | 0.00 | 99 | 1017.0 |
| 20260904070625 | 70 | 285 | 0.0 | 1.0 | 0.00 | 0.00 | 0.00 | 99 | 1017.1 |
| 20260904070120 | 70 | 241 | 0.0 | 0.0 | 0.00 | 0.00 | 0.00 | 99 | 1017.1 |
| 20260904065615 | 70 | 242 | 0.0 | 1.0 | 0.00 | 0.00 | 0.00 | 99 | 1017.0 |
| 20260904065112 | 70 | 281 | 0.0 | 0.0 | 0.00 | 0.00 | 0.00 | 99 | 1017.4 |
| 20260904064608 | 70 | 242 | 0.0 | 0.0 | 0.00 | 0.00 | 0.00 | 99 | 1017.4 |
| 20260904064107 | 70 | 241 | 0.0 | 0.0 | 0.00 | 0.00 | 0.00 | 99 | 1017.4 |
| 20260904063603 | 70 | 241 | 0.0 | 0.0 | 0.00 | 0.00 | 0.00 | 99 | 1017.3 |
| 20260904063059 | 70 | 242 | 0.0 | 0.0 | 0.00 | 0.00 | 0.00 | 99 | 1017.5 |
| 20260904062555 | 70 | 242 | 0.0 | 0.0 | 0.00 | 0.00 | 0.00 | 99 | 1017.6 |
| 20260904062050 | 70 | 241 | 0.0 | 0.0 | 0.00 | 0.00 | 0.00 | 99 | 1017.4 |
| 20260904061545 | 70 | 241 | 0.0 | 0.0 | 0.00 | 0.00 | 0.00 | 99 | 1017.5 |
| 20260904061042 | 70 | 242 | 0.0 | 0.0 | 0.00 | 0.00 | 0.00 | 99 | 1017.4 |
| 20260904060537 | 69 | 241 | 0.0 | 0.0 | 0.00 | 0.00 | 0.00 | 99 | 1017.3 |
| 20260904060033 | 69 | 242 | 0.0 | 0.0 | 0.00 | 0.00 | 0.00 | 99 | 1017.4 |
| 20260904055528 | 70 | 242 | 0.0 | 0.0 | 0.00 | 0.00 | 0.00 | 99 | 1017.2 |
| 20260904055024 | 69 | 242 | 0.0 | 0.0 | 0.00 | 0.00 | 0.00 | 99 | 1017.5 |
| 20260904054519 | 69 | 239 | 0.0 | 0.0 | 0.00 | 0.00 | 0.00 | 99 | 1017.7 |
| 20260904054015 | 69 | 242 | 0.0 | 0.0 | 0.00 | 0.00 | 0.00 | 99 | 1017.5 |
| 20260904053515 | 69 | 235 | 0.0 | 0.0 | 0.00 | 0.00 | 0.00 | 99 | 1017.2 |
| 20260904053010 | 69 | 236 | 0.0 | 0.0 | 0.00 | 0.00 | 0.00 | 99 | 1017.6 |
| 20260904052506 | 69 | 235 | 0.0 | 0.0 | 0.00 | 0.00 | 0.00 | 99 | 1017.6 |
| 20260904052002 | 69 | 239 | 0.0 | 0.0 | 0.00 | 0.00 | 0.00 | 99 | 1017.8 |
| 20260904051459 | 69 | 241 | 0.0 | 0.0 | 0.00 | 0.00 | 0.00 | 99 | 1017.7 |
| 20260904050957 | 69 | 241 | 0.0 | 0.0 | 0.00 | 0.00 | 0.00 | 99 | 1017.6 |
| 20260904050455 | 69 | 242 | 0.0 | 0.0 | 0.00 | 0.00 | 0.00 | 99 | 1017.7 |
| 20260904045949 | 69 | 249 | 0.0 | 0.0 | 0.00 | 0.00 | 0.00 | 99 | 1018.0 |
| 20260904045444 | 69 | 245 | 0.0 | 0.0 | 0.00 | 0.00 | 0.00 | 99 | 1017.8 |
| 20260904044939 | 69 | 242 | 0.0 | 0.0 | 0.00 | 0.00 | 0.00 | 99 | 1017.7 |
| 20260904044435 | 69 | 242 | 0.0 | 0.0 | 0.00 | 0.00 | 0.00 | 99 | 1017.4 |
| 20260904043931 | 69 | 242 | 0.0 | 0.0 | 0.00 | 0.00 | 0.00 | 99 | 1017.5 |
| 20260904043428 | 69 | 242 | 0.0 | 0.0 | 0.00 | 0.00 | 0.00 | 99 | 1017.7 |
| 20260904042923 | 69 | 242 | 0.0 | 0.0 | 0.00 | 0.00 | 0.00 | 99 | 1017.8 |
| 20260904042419 | 69 | 241 | 0.0 | 0.0 | 0.00 | 0.00 | 0.00 | 99 | 1017.7 |
| 20260904041913 | 69 | 249 | 0.0 | 0.0 | 0.00 | 0.00 | 0.00 | 99 | 1017.6 |
| 20260904041410 | 69 | 239 | 0.0 | 0.0 | 0.00 | 0.00 | 0.00 | 99 | 1017.5 |
| 20260904040906 | 69 | 241 | 0.0 | 0.0 | 0.00 | 0.00 | 0.00 | 99 | 1017.3 |
| 20260904040400 | 69 | 245 | 0.0 | 0.0 | 0.00 | 0.00 | 0.00 | 99 | 1017.3 |
| 20260904035856 | 69 | 239 | 0.0 | 0.0 | 0.00 | 1.30 | 1.30 | 99 | 1017.5 |
| 20260904035352 | 69 | 232 | 0.0 | 0.0 | 0.00 | 1.30 | 1.30 | 99 | 1017.4 |
| 20260904034851 | 69 | 249 | 0.0 | 0.0 | 0.00 | 1.30 | 1.30 | 99 | 1017.4 |
| 20260904034347 | 69 | 233 | 0.0 | 0.0 | 0.00 | 1.30 | 1.30 | 99 | 1017.5 |
| 20260904033843 | 69 | 298 | 1.0 | 1.0 | 0.00 | 1.30 | 1.30 | 99 | 1017.5 |
| 20260904033339 | 69 | 220 | 0.0 | 0.0 | 0.00 | 1.30 | 1.30 | 99 | 1017.3 |
| 20260904032835 | 69 | 241 | 0.0 | 0.0 | 0.00 | 1.30 | 1.30 | 99 | 1017.3 |
| 20260904032335 | 69 | 234 | 0.0 | 0.0 | 0.00 | 1.30 | 1.30 | 99 | 1017.3 |
| 20260904031828 | 69 | 240 | 0.0 | 0.0 | 0.00 | 1.30 | 1.30 | 99 | 1017.1 |
| 20260904031324 | 69 | 223 | 1.0 | 1.0 | 0.00 | 1.30 | 1.30 | 99 | 1017.1 |
| 20260904030820 | 69 | 245 | 0.0 | 0.0 | 0.00 | 1.30 | 1.30 | 99 | 1017.4 |
| 20260904030315 | 69 | 278 | 1.0 | 1.0 | 0.00 | 1.30 | 1.30 | 99 | 1017.3 |
| 20260904025811 | 69 | 221 | 1.0 | 1.0 | 0.00 | 1.30 | 1.30 | 99 | 1017.3 |
| 20260904025307 | 69 | 206 | 1.0 | 1.0 | 0.00 | 1.30 | 1.30 | 99 | 1017.1 |
| 20260904024807 | 69 | 249 | 0.0 | 0.0 | 0.00 | 1.30 | 1.30 | 99 | 1017.0 |
| 20260904024302 | 69 | 263 | 0.0 | 0.0 | 0.00 | 1.30 | 1.30 | 99 | 1016.9 |
| 20260904023759 | 69 | 228 | 0.0 | 0.0 | 0.00 | 1.30 | 1.30 | 99 | 1016.7 |
| 20260904023254 | 69 | 237 | 0.0 | 0.0 | 0.00 | 1.30 | 1.30 | 99 | 1017.0 |
| 20260904022753 | 69 | 249 | 0.0 | 0.0 | 0.00 | 1.30 | 1.30 | 99 | 1016.9 |
| 20260904022250 | 69 | 278 | 0.0 | 0.0 | 0.00 | 1.30 | 1.30 | 99 | 1016.6 |
| 20260904021746 | 69 | 292 | 0.0 | 0.0 | 0.00 | 1.30 | 1.30 | 99 | 1016.9 |
| 20260904021241 | 69 | 241 | 0.0 | 0.0 | 0.00 | 1.30 | 1.30 | 99 | 1017.0 |
| 20260904020737 | 69 | 271 | 1.0 | 1.0 | 0.00 | 1.30 | 1.30 | 99 | 1016.6 |
| 20260904020236 | 70 | 279 | 1.0 | 1.0 | 0.00 | 1.30 | 1.30 | 99 | 1016.6 |
| 20260904015735 | 69 | 252 | 0.0 | 0.0 | 0.00 | 1.30 | 1.30 | 99 | 1016.5 |
| 20260904015231 | 69 | 242 | 0.0 | 0.0 | 0.00 | 1.30 | 1.30 | 99 | 1016.4 |
| 20260904014729 | 70 | 242 | 0.0 | 0.0 | 0.00 | 1.30 | 1.30 | 99 | 1016.6 |
| 20260904014224 | 70 | 241 | 0.0 | 0.0 | 0.00 | 1.30 | 1.30 | 99 | 1016.9 |
| 20260904013720 | 70 | 242 | 0.0 | 0.0 | 0.00 | 1.30 | 1.30 | 99 | 1017.0 |
| 20260904013216 | 70 | 241 | 0.0 | 0.0 | 0.00 | 1.30 | 1.30 | 99 | 1016.9 |
| 20260904012712 | 70 | 234 | 0.0 | 0.0 | 0.00 | 1.30 | 1.30 | 99 | 1016.7 |
| 20260904012210 | 70 | 240 | 0.0 | 0.0 | 0.00 | 1.30 | 1.30 | 99 | 1016.9 |
| 20260904011705 | 70 | 239 | 0.0 | 0.0 | 0.00 | 1.30 | 1.30 | 99 | 1016.7 |
| 20260904011201 | 70 | 242 | 0.0 | 0.0 | 0.00 | 1.30 | 1.30 | 99 | 1016.6 |
| 20260904010655 | 70 | 245 | 0.0 | 1.0 | 0.00 | 1.30 | 1.30 | 99 | 1016.6 |
| 20260904010152 | 70 | 239 | 0.0 | 0.0 | 0.00 | 1.30 | 1.30 | 99 | 1016.7 |
| 20260904005647 | 70 | 240 | 0.0 | 0.0 | 0.00 | 1.30 | 1.30 | 99 | 1017.0 |
| 20260904005143 | 70 | 241 | 0.0 | 0.0 | 0.00 | 1.30 | 1.30 | 99 | 1017.0 |
| 20260904004637 | 70 | 238 | 0.0 | 0.0 | 0.00 | 1.30 | 1.30 | 99 | 1016.5 |
| 20260904004132 | 70 | 249 | 0.0 | 0.0 | 0.00 | 1.30 | 1.30 | 99 | 1016.7 |
| 20260904003628 | 70 | 241 | 0.0 | 0.0 | 0.00 | 1.30 | 1.30 | 99 | 1016.6 |
| 20260904003124 | 70 | 248 | 0.0 | 0.0 | 0.00 | 1.30 | 1.30 | 99 | 1016.3 |
| 20260904002620 | 71 | 268 | 0.0 | 1.0 | 0.00 | 1.30 | 1.30 | 99 | 1016.3 |
| 20260904002119 | 71 | 245 | 0.0 | 1.0 | 0.00 | 1.30 | 1.30 | 99 | 1016.2 |
| 20260904001615 | 71 | 252 | 0.0 | 0.0 | 0.00 | 1.30 | 1.30 | 99 | 1016.1 |
| 20260904001113 | 70 | 248 | 0.0 | 0.0 | 0.00 | 1.30 | 1.30 | 99 | 1016.1 |
| 20260904000609 | 70 | 256 | 0.0 | 0.0 | 0.00 | 1.30 | 1.30 | 99 | 1015.8 |
| 20260904000105 | 71 | 252 | 0.0 | 0.0 | 0.00 | 1.30 | 1.30 | 99 | 1015.9 |
| 20260903235604 | 71 | 321 | 1.0 | 1.0 | 0.00 | 1.30 | 1.30 | 99 | 1015.6 |
| 20260903235101 | 71 | 248 | 0.0 | 0.0 | 0.00 | 1.30 | 1.30 | 99 | 1015.7 |
| 20260903234555 | 71 | 290 | 0.0 | 1.0 | 0.00 | 1.30 | 1.30 | 99 | 1016.1 |
| 20260903234051 | 71 | 258 | 0.0 | 1.0 | 0.00 | 1.30 | 1.30 | 99 | 1016.1 |
| 20260903233547 | 71 | 133 | 1.0 | 1.0 | 0.00 | 1.30 | 1.30 | 99 | 1015.8 |
| 20260903233043 | 71 | 258 | 1.0 | 1.0 | 0.00 | 1.30 | 1.30 | 99 | 1016.3 |
| 20260903232538 | 71 | 260 | 0.0 | 0.0 | 0.00 | 1.30 | 1.30 | 99 | 1015.8 |
| 20260903232033 | 71 | 249 | 0.0 | 0.0 | 0.00 | 1.30 | 1.30 | 99 | 1015.8 |
| 20260903231527 | 71 | 323 | 0.0 | 0.0 | 0.00 | 1.30 | 1.30 | 99 | 1015.9 |
| 20260903231022 | 71 | 240 | 0.0 | 0.0 | 0.00 | 1.30 | 1.30 | 99 | 1016.1 |
| 20260903230518 | 71 | 243 | 0.0 | 0.0 | 0.00 | 1.30 | 1.30 | 99 | 1016.2 |
| 20260903230016 | 71 | 250 | 0.0 | 0.0 | 0.00 | 1.30 | 1.30 | 99 | 1016.3 |
| 20260903225514 | 71 | 180 | 0.0 | 1.0 | 0.00 | 1.30 | 1.30 | 98 | 1016.3 |
| 20260903225010 | 71 | 240 | 0.0 | 0.0 | 0.00 | 1.30 | 1.30 | 99 | 1016.1 |
| 20260903224506 | 71 | 178 | 2.0 | 3.0 | 0.00 | 1.30 | 1.30 | 98 | 1016.4 |
| 20260903224002 | 71 | 231 | 0.0 | 0.0 | 0.00 | 1.30 | 1.30 | 98 | 1017.0 |
| 20260903223501 | 71 | 248 | 0.0 | 1.0 | 0.00 | 1.30 | 1.30 | 98 | 1016.7 |
| 20260903223000 | 71 | 247 | 0.0 | 0.0 | 0.00 | 1.30 | 1.30 | 98 | 1016.9 |
| 20260903222455 | 71 | 247 | 0.0 | 0.0 | 0.00 | 1.30 | 1.30 | 98 | 1017.1 |
| 20260903221954 | 71 | 238 | 0.0 | 1.0 | 0.00 | 1.30 | 1.30 | 98 | 1017.1 |
| 20260903221450 | 71 | 255 | 0.0 | 0.0 | 0.00 | 1.30 | 1.30 | 98 | 1017.0 |
| 20260903220947 | 71 | 249 | 0.0 | 2.0 | 0.00 | 1.30 | 1.30 | 98 | 1016.9 |
| 20260903220441 | 71 | 326 | 1.0 | 1.0 | 0.00 | 1.30 | 1.30 | 98 | 1017.3 |
| 20260903215939 | 71 | 233 | 1.0 | 1.0 | 0.00 | 1.30 | 1.30 | 98 | 1016.9 |
| 20260903215436 | 71 | 282 | 0.0 | 1.0 | 0.00 | 1.30 | 1.30 | 98 | 1017.2 |
| 20260903214933 | 70 | 239 | 0.0 | 1.0 | 0.00 | 1.30 | 1.30 | 98 | 1017.4 |
| 20260903214430 | 70 | 145 | 1.0 | 1.0 | 0.00 | 1.30 | 1.30 | 98 | 1017.5 |
| 20260903213929 | 70 | 232 | 0.0 | 0.0 | 0.00 | 1.30 | 1.30 | 98 | 1017.7 |
| 20260903213425 | 70 | 240 | 0.0 | 0.0 | 0.00 | 1.30 | 1.30 | 98 | 1018.1 |
| 20260903212920 | 70 | 241 | 0.0 | 0.0 | 0.00 | 1.30 | 1.30 | 98 | 1018.2 |
| 20260903212416 | 70 | 241 | 0.0 | 0.0 | 0.00 | 1.30 | 1.30 | 98 | 1017.8 |
| 20260903211916 | 70 | 289 | 1.0 | 1.0 | 0.00 | 1.30 | 1.30 | 98 | 1017.8 |
| 20260903211412 | 70 | 232 | 0.0 | 0.0 | 0.07 | 1.30 | 1.30 | 98 | 1018.0 |
| 20260903210908 | 70 | 208 | 1.0 | 2.0 | 0.12 | 1.29 | 1.29 | 98 | 1018.0 |
| 20260903210407 | 70 | 223 | 1.0 | 2.0 | 0.94 | 1.29 | 1.29 | 97 | 1018.1 |
| 20260903205903 | 70 | 168 | 2.0 | 2.0 | 0.90 | 1.25 | 1.25 | 97 | 1018.3 |
| 20260903205402 | 70 | 249 | 0.0 | 0.0 | 0.35 | 1.13 | 1.13 | 97 | 1018.9 |
| 20260903204857 | 70 | 202 | 0.0 | 1.0 | 0.19 | 1.09 | 1.09 | 97 | 1018.6 |
| 20260903204353 | 70 | 232 | 0.0 | 2.0 | 0.00 | 1.06 | 1.06 | 97 | 1019.4 |
| 20260903203849 | 70 | 230 | 0.0 | 2.0 | 0.07 | 1.06 | 1.06 | 96 | 1019.5 |
| 20260903203344 | 69 | 252 | 1.0 | 1.0 | 0.42 | 1.06 | 1.06 | 96 | 1019.0 |
| 20260903202843 | 69 | 228 | 1.0 | 5.0 | 1.91 | 1.05 | 1.05 | 96 | 1018.5 |
| 20260903202340 | 69 | 211 | 4.0 | 13.0 | 1.51 | 0.94 | 0.94 | 95 | 1017.3 |
| 20260903201839 | 71 | 288 | 4.0 | 14.0 | 3.85 | 0.64 | 0.64 | 92 | 1017.1 |
| 20260903201335 | 77 | 317 | 14.0 | 22.0 | 0.90 | 0.15 | 0.15 | 87 | 1018.5 |
| 20260903200833 | 84 | 308 | 1.0 | 2.0 | 0.00 | 0.00 | 0.00 | 76 | 1014.9 |
| 20260903200329 | 85 | 249 | 0.0 | 1.0 | 0.00 | 0.00 | 0.00 | 76 | 1014.3 |
| 20260903195824 | 85 | 227 | 0.0 | 1.0 | 0.00 | 0.00 | 0.00 | 75 | 1014.3 |
| 20260903195320 | 85 | 181 | 3.0 | 3.0 | 0.00 | 0.00 | 0.00 | 74 | 1014.2 |
| 20260903194815 | 86 | 248 | 1.0 | 1.0 | 0.00 | 0.00 | 0.00 | 74 | 1014.5 |
| 20260903194311 | 86 | 172 | 2.0 | 3.0 | 0.00 | 0.00 | 0.00 | 73 | 1014.0 |
| 20260903193806 | 87 | 170 | 3.0 | 3.0 | 0.00 | 0.00 | 0.00 | 71 | 1014.3 |
| 20260903193302 | 87 | 302 | 0.0 | 1.0 | 0.00 | 0.00 | 0.00 | 70 | 1014.3 |
| 20260903192757 | 88 | 256 | 1.0 | 1.0 | 0.00 | 0.00 | 0.00 | 68 | 1014.2 |
| 20260903192253 | 89 | 225 | 0.0 | 1.0 | 0.00 | 0.00 | 0.00 | 67 | 1014.3 |
| 20260903191749 | 89 | 191 | 0.0 | 2.0 | 0.00 | 0.00 | 0.00 | 67 | 1014.5 |
| 20260903191244 | 90 | 74 | 2.0 | 5.0 | 0.00 | 0.00 | 0.00 | 66 | 1015.1 |
| 20260903190738 | 89 | 260 | 0.0 | 1.0 | 0.00 | 0.00 | 0.00 | 65 | 1015.2 |
| 20260903190233 | 89 | 163 | 2.0 | 3.0 | 0.00 | 0.00 | 0.00 | 66 | 1015.2 |
| 20260903185728 | 90 | 200 | 2.0 | 2.0 | 0.00 | 0.00 | 0.00 | 64 | 1015.4 |
| 20260903185222 | 90 | 86 | 0.0 | 3.0 | 0.00 | 0.00 | 0.00 | 65 | 1015.4 |
| 20260903184719 | 89 | 158 | 3.0 | 3.0 | 0.00 | 0.00 | 0.00 | 67 | 1015.4 |
| 20260903184215 | 90 | 260 | 2.0 | 6.0 | 0.00 | 0.00 | 0.00 | 65 | 1015.5 |
| 20260903183714 | 88 | 267 | 1.0 | 2.0 | 0.00 | 0.00 | 0.00 | 67 | 1015.6 |
| 20260903183209 | 89 | 199 | 4.0 | 6.0 | 0.00 | 0.00 | 0.00 | 65 | 1015.8 |
| 20260903182708 | 89 | 181 | 2.0 | 6.0 | 0.00 | 0.00 | 0.00 | 67 | 1015.6 |
| 20260903182203 | 89 | 217 | 2.0 | 3.0 | 0.00 | 0.00 | 0.00 | 65 | 1015.6 |
| 20260903181701 | 87 | 232 | 2.0 | 6.0 | 0.00 | 0.00 | 0.00 | 68 | 1015.4 |
| 20260903181156 | 87 | 62 | 2.0 | 2.0 | 0.00 | 0.00 | 0.00 | 69 | 1015.5 |
| 20260903180651 | 87 | 123 | 1.0 | 6.0 | 0.00 | 0.00 | 0.00 | 70 | 1015.7 |
| 20260903180146 | 87 | 27 | 2.0 | 3.0 | 0.00 | 0.00 | 0.00 | 69 | 1015.5 |
| 20260903175644 | 85 | 144 | 4.0 | 6.0 | 0.00 | 0.00 | 0.00 | 71 | 1015.7 |
| 20260903175139 | 86 | 192 | 3.0 | 3.0 | 0.00 | 0.00 | 0.00 | 69 | 1015.8 |
| 20260903174633 | 85 | 230 | 1.0 | 3.0 | 0.00 | 0.00 | 0.00 | 70 | 1015.8 |
| 20260903174128 | 85 | 316 | 1.0 | 2.0 | 0.00 | 0.00 | 0.00 | 70 | 1016.0 |
| 20260903173623 | 84 | 150 | 3.0 | 3.0 | 0.00 | 0.00 | 0.00 | 72 | 1016.0 |
| 20260903173120 | 84 | 207 | 2.0 | 5.0 | 0.00 | 0.00 | 0.00 | 72 | 1016.0 |
| 20260903172619 | 84 | 134 | 2.0 | 2.0 | 0.00 | 0.00 | 0.00 | 69 | 1016.0 |
| 20260903172115 | 84 | 135 | 2.0 | 3.0 | 0.00 | 0.00 | 0.00 | 71 | 1016.0 |
| 20260903171615 | 83 | 209 | 1.0 | 3.0 | 0.00 | 0.00 | 0.00 | 72 | 1015.9 |
| 20260903171111 | 84 | 155 | 4.0 | 5.0 | 0.00 | 0.00 | 0.00 | 71 | 1015.9 |
| 20260903170609 | 84 | 325 | 1.0 | 2.0 | 0.00 | 0.00 | 0.00 | 71 | 1015.8 |
| 20260903170105 | 82 | 133 | 2.0 | 3.0 | 0.00 | 0.00 | 0.00 | 76 | 1015.8 |
| 20260903165602 | 80 | 168 | 1.0 | 2.0 | 0.00 | 0.00 | 0.00 | 78 | 1016.2 |
| 20260903165058 | 80 | 209 | 1.0 | 3.0 | 0.00 | 0.00 | 0.00 | 79 | 1016.1 |
| 20260903164552 | 80 | 176 | 4.0 | 9.0 | 0.00 | 0.00 | 0.00 | 81 | 1016.4 |
| 20260903164048 | 80 | 226 | 1.0 | 2.0 | 0.00 | 0.00 | 0.00 | 83 | 1016.7 |
| 20260903163543 | 79 | 31 | 0.0 | 2.0 | 0.00 | 0.00 | 0.00 | 86 | 1017.2 |
| 20260903163039 | 79 | 246 | 1.0 | 3.0 | 0.00 | 0.00 | 0.00 | 86 | 1017.4 |
| 20260903162535 | 80 | 295 | 3.0 | 3.0 | 0.00 | 0.00 | 0.00 | 88 | 1017.3 |
| 20260903162031 | 80 | 279 | 1.0 | 2.0 | 0.00 | 0.00 | 0.00 | 89 | 1017.4 |
| 20260903161526 | 79 | 297 | 2.0 | 3.0 | 0.00 | 0.00 | 0.00 | 90 | 1017.7 |
| 20260903161022 | 79 | 316 | 2.0 | 3.0 | 0.00 | 0.00 | 0.00 | 90 | 1017.5 |
| 20260903160520 | 79 | 287 | 2.0 | 2.0 | 0.00 | 0.00 | 0.00 | 90 | 1017.6 |
| 20260903160016 | 79 | 308 | 4.0 | 6.0 | 0.00 | 0.00 | 0.00 | 91 | 1017.8 |
| 20260903155514 | 79 | 296 | 2.0 | 2.0 | 0.00 | 0.00 | 0.00 | 91 | 1017.7 |
| 20260903155010 | 79 | 272 | 1.0 | 1.0 | 0.00 | 0.00 | 0.00 | 91 | 1017.0 |
| 20260903154506 | 79 | 254 | 0.0 | 0.0 | 0.00 | 0.00 | 0.00 | 91 | 1017.1 |
| 20260903154002 | 79 | 253 | 0.0 | 1.0 | 0.00 | 0.00 | 0.00 | 90 | 1017.0 |
| 20260903153457 | 79 | 253 | 0.0 | 0.0 | 0.00 | 0.00 | 0.00 | 90 | 1016.7 |
| 20260903152953 | 79 | 208 | 0.0 | 1.0 | 0.00 | 0.00 | 0.00 | 89 | 1016.5 |
| 20260903152449 | 80 | 256 | 0.0 | 1.0 | 0.00 | 0.00 | 0.00 | 89 | 1016.6 |
| 20260903151945 | 80 | 252 | 0.0 | 1.0 | 0.00 | 0.00 | 0.00 | 88 | 1016.5 |
| 20260903151438 | 80 | 274 | 2.0 | 2.0 | 0.00 | 0.00 | 0.00 | 87 | 1016.6 |
| 20260903150933 | 80 | 279 | 1.0 | 3.0 | 0.00 | 0.00 | 0.00 | 87 | 1016.7 |
| 20260903150428 | 80 | 294 | 1.0 | 1.0 | 0.00 | 0.00 | 0.00 | 87 | 1016.2 |
| 20260903145923 | 81 | 252 | 1.0 | 1.0 | 0.00 | 0.00 | 0.00 | 85 | 1016.3 |
| 20260903145418 | 81 | 239 | 0.0 | 1.0 | 0.00 | 0.00 | 0.00 | 85 | 1016.1 |
| 20260903144918 | 81 | 226 | 0.0 | 1.0 | 0.00 | 0.00 | 0.00 | 84 | 1016.3 |
| 20260903144418 | 81 | 259 | 1.0 | 1.0 | 0.00 | 0.00 | 0.00 | 83 | 1016.5 |
| 20260903143914 | 82 | 249 | 1.0 | 1.0 | 0.00 | 0.00 | 0.00 | 83 | 1016.4 |
| 20260903143410 | 82 | 306 | 0.0 | 0.0 | 0.00 | 0.00 | 0.00 | 83 | 1016.4 |
| 20260903142905 | 81 | 275 | 0.0 | 1.0 | 0.00 | 0.00 | 0.00 | 83 | 1016.4 |
| 20260903142401 | 82 | 263 | 1.0 | 1.0 | 0.00 | 0.00 | 0.00 | 82 | 1016.3 |
| 20260903141857 | 82 | 252 | 0.0 | 1.0 | 0.00 | 0.00 | 0.00 | 82 | 1016.2 |
| 20260903141352 | 82 | 257 | 0.0 | 1.0 | 0.00 | 0.00 | 0.00 | 81 | 1016.2 |
| 20260903140848 | 83 | 254 | 2.0 | 2.0 | 0.00 | 0.00 | 0.00 | 80 | 1016.1 |
| 20260903140343 | 83 | 240 | 1.0 | 1.0 | 0.00 | 0.00 | 0.00 | 80 | 1016.2 |
| 20260903135838 | 83 | 275 | 0.0 | 1.0 | 0.00 | 0.00 | 0.00 | 80 | 1016.1 |
| 20260903135334 | 85 | 256 | 1.0 | 2.0 | 0.00 | 0.00 | 0.00 | 77 | 1016.3 |
| 20260903134832 | 84 | 277 | 2.0 | 2.0 | 0.00 | 0.00 | 0.00 | 77 | 1016.3 |
| 20260903134328 | 84 | 262 | 0.0 | 1.0 | 0.00 | 0.00 | 0.00 | 78 | 1016.5 |
| 20260903133825 | 83 | 243 | 0.0 | 1.0 | 0.00 | 0.00 | 0.00 | 79 | 1016.3 |
| 20260903133322 | 84 | 243 | 1.0 | 1.0 | 0.00 | 0.00 | 0.00 | 76 | 1016.2 |
| 20260903132816 | 84 | 234 | 0.0 | 1.0 | 0.00 | 0.00 | 0.00 | 76 | 1016.3 |
| 20260903132312 | 83 | 181 | 1.0 | 2.0 | 0.00 | 0.00 | 0.00 | 77 | 1016.5 |
| 20260903131807 | 82 | 249 | 1.0 | 2.0 | 0.00 | 0.00 | 0.00 | 79 | 1016.4 |
| 20260903131306 | 82 | 262 | 1.0 | 1.0 | 0.00 | 0.00 | 0.00 | 79 | 1016.3 |
| 20260903130801 | 82 | 160 | 2.0 | 2.0 | 0.00 | 0.00 | 0.00 | 78 | 1016.6 |
| 20260903130255 | 81 | 223 | 1.0 | 1.0 | 0.00 | 0.00 | 0.00 | 80 | 1016.4 |
| 20260903125754 | 82 | 315 | 0.0 | 2.0 | 0.00 | 0.00 | 0.00 | 79 | 1016.5 |
| 20260903125249 | 81 | 236 | 0.0 | 1.0 | 0.00 | 0.00 | 0.00 | 79 | 1016.4 |
| 20260903124748 | 80 | 189 | 1.0 | 1.0 | 0.00 | 0.00 | 0.00 | 80 | 1016.5 |
| 20260903124244 | 81 | 260 | 1.0 | 2.0 | 0.00 | 0.00 | 0.00 | 80 | 1016.7 |
| 20260903123742 | 80 | 228 | 1.0 | 2.0 | 0.00 | 0.00 | 0.00 | 80 | 1016.9 |
| 20260903123242 | 80 | 246 | 0.0 | 1.0 | 0.00 | 0.00 | 0.00 | 79 | 1016.7 |
| 20260903122741 | 80 | 241 | 0.0 | 1.0 | 0.00 | 0.00 | 0.00 | 79 | 1016.6 |
| 20260903122236 | 80 | 228 | 0.0 | 0.0 | 0.00 | 0.00 | 0.00 | 79 | 1017.1 |
| 20260903121734 | 79 | 239 | 0.0 | 1.0 | 0.00 | 0.00 | 0.00 | 80 | 1016.7 |
| 20260903121230 | 78 | 229 | 0.0 | 1.0 | 0.00 | 0.00 | 0.00 | 81 | 1016.5 |
| 20260903120731 | 77 | 236 | 0.0 | 0.0 | 0.00 | 0.00 | 0.00 | 83 | 1016.7 |
| 20260903120230 | 76 | 268 | 0.0 | 0.0 | 0.00 | 0.00 | 0.00 | 85 | 1016.7 |
| 20260903115723 | 75 | 250 | 0.0 | 0.0 | 0.00 | 0.00 | 0.00 | 87 | 1016.7 |
| 20260903115218 | 75 | 230 | 0.0 | 1.0 | 0.00 | 0.00 | 0.00 | 88 | 1016.7 |
| 20260903114713 | 74 | 246 | 0.0 | 0.0 | 0.00 | 0.00 | 0.00 | 88 | 1016.7 |
| 20260903114209 | 74 | 246 | 0.0 | 0.0 | 0.00 | 0.00 | 0.00 | 88 | 1016.6 |
| 20260903113709 | 74 | 246 | 0.0 | 0.0 | 0.00 | 0.00 | 0.00 | 88 | 1016.5 |
| 20260903113205 | 74 | 246 | 0.0 | 0.0 | 0.00 | 0.00 | 0.00 | 88 | 1016.5 |
| 20260903112701 | 74 | 244 | 0.0 | 0.0 | 0.00 | 0.00 | 0.00 | 88 | 1016.5 |
| 20260903112156 | 73 | 242 | 0.0 | 0.0 | 0.00 | 0.00 | 0.00 | 88 | 1016.5 |
| 20260903111655 | 73 | 240 | 0.0 | 0.0 | 0.00 | 0.00 | 0.00 | 88 | 1016.4 |
| 20260903111150 | 73 | 238 | 0.0 | 0.0 | 0.00 | 0.00 | 0.00 | 88 | 1016.5 |
| 20260903110647 | 73 | 229 | 0.0 | 0.0 | 0.00 | 0.00 | 0.00 | 88 | 1016.5 |
| 20260903110143 | 73 | 229 | 0.0 | 1.0 | 0.00 | 0.00 | 0.00 | 88 | 1016.2 |
| 20260903105636 | 73 | 228 | 0.0 | 0.0 | 0.00 | 0.00 | 0.00 | 89 | 1016.2 |
| 20260903105132 | 73 | 232 | 0.0 | 0.0 | 0.00 | 0.00 | 0.00 | 88 | 1016.1 |
| 20260903104631 | 73 | 229 | 0.0 | 0.0 | 0.00 | 0.00 | 0.00 | 88 | 1016.1 |
| 20260903104127 | 73 | 235 | 0.0 | 0.0 | 0.00 | 0.00 | 0.00 | 88 | 1016.0 |
| 20260903103622 | 73 | 235 | 0.0 | 0.0 | 0.00 | 0.00 | 0.00 | 87 | 1016.1 |
| 20260903103119 | 74 | 239 | 0.0 | 0.0 | 0.00 | 0.00 | 0.00 | 87 | 1016.1 |
| 20260903102614 | 74 | 239 | 0.0 | 0.0 | 0.00 | 0.00 | 0.00 | 87 | 1016.2 |
| 20260903102113 | 74 | 242 | 0.0 | 0.0 | 0.00 | 0.00 | 0.00 | 87 | 1016.3 |
| 20260903101607 | 74 | 241 | 0.0 | 0.0 | 0.00 | 0.00 | 0.00 | 87 | 1016.1 |
| 20260903101103 | 74 | 241 | 0.0 | 0.0 | 0.00 | 0.00 | 0.00 | 86 | 1016.1 |
| 20260903100603 | 74 | 239 | 0.0 | 0.0 | 0.00 | 0.00 | 0.00 | 86 | 1016.2 |
| 20260903095600 | 74 | 235 | 0.0 | 0.0 | 0.00 | 0.00 | 0.00 | 86 | 1016.1 |
| 20260903095054 | 74 | 235 | 0.0 | 0.0 | 0.00 | 0.00 | 0.00 | 85 | 1016.0 |
| 20260903094549 | 74 | 234 | 0.0 | 0.0 | 0.00 | 0.00 | 0.00 | 85 | 1015.9 |
| 20260903094045 | 75 | 233 | 0.0 | 0.0 | 0.00 | 0.00 | 0.00 | 85 | 1016.0 |
| 20260903093545 | 74 | 221 | 0.0 | 1.0 | 0.00 | 0.00 | 0.00 | 85 | 1016.1 |
| 20260903093040 | 75 | 234 | 0.0 | 0.0 | 0.00 | 0.00 | 0.00 | 84 | 1015.9 |
| 20260903092539 | 75 | 233 | 0.0 | 0.0 | 0.00 | 0.00 | 0.00 | 84 | 1016.0 |
| 20260903092034 | 75 | 232 | 0.0 | 0.0 | 0.00 | 0.00 | 0.00 | 84 | 1016.0 |
| 20260903091532 | 75 | 229 | 0.0 | 0.0 | 0.00 | 0.00 | 0.00 | 83 | 1015.7 |
| 20260903091027 | 75 | 229 | 0.0 | 0.0 | 0.00 | 0.00 | 0.00 | 83 | 1015.6 |
| 20260903090523 | 75 | 234 | 0.0 | 0.0 | 0.00 | 0.00 | 0.00 | 83 | 1015.8 |
| 20260903090022 | 75 | 239 | 0.0 | 0.0 | 0.00 | 0.00 | 0.00 | 83 | 1015.8 |
| 20260903085520 | 75 | 232 | 0.0 | 1.0 | 0.00 | 0.00 | 0.00 | 83 | 1015.7 |
| 20260903085016 | 75 | 239 | 0.0 | 0.0 | 0.00 | 0.00 | 0.00 | 83 | 1015.8 |
| 20260903084514 | 75 | 239 | 0.0 | 1.0 | 0.00 | 0.00 | 0.00 | 83 | 1015.8 |
| 20260903084009 | 76 | 239 | 0.0 | 0.0 | 0.00 | 0.00 | 0.00 | 82 | 1015.7 |
| 20260903083505 | 76 | 249 | 0.0 | 2.0 | 0.00 | 0.00 | 0.00 | 83 | 1016.0 |
| 20260903083004 | 76 | 229 | 0.0 | 1.0 | 0.00 | 0.00 | 0.00 | 82 | 1015.6 |
| 20260903082459 | 76 | 229 | 0.0 | 1.0 | 0.00 | 0.00 | 0.00 | 82 | 1015.8 |
| 20260903081954 | 76 | 242 | 0.0 | 1.0 | 0.00 | 0.00 | 0.00 | 82 | 1015.8 |